Satellite-Ground Cal/Val Region Overpasses Predictions

Prediction of Satellite NPP Overpassing Cal/Val Region: PacNW

Region Location: (Latitude: 10.00, Longitude: 139.50) to (Latitude: 22.70, Longitude: 165.60).

Table of predicted overpasses for the next 14.0 days since TLE Epoch: 9/25/2020
Interval Starting Time Starting Location Ending Time Ending Location
1 09/26/2020 02:45:52 ( 10.03, 158.32) 09/26/2020 02:49:27 ( 22.65, 155.32)
2 09/26/2020 15:17:45 ( 22.69, 155.54) 09/26/2020 15:21:21 ( 10.01, 152.53)
3 09/27/2020 02:26:49 ( 10.01, 163.08) 09/27/2020 02:30:25 ( 22.69, 160.07)
4 09/27/2020 14:58:43 ( 22.65, 160.29) 09/27/2020 15:02:18 ( 10.02, 157.29)
5 09/28/2020 02:10:30 ( 19.57, 165.59) 09/28/2020 02:11:23 ( 22.68, 164.83)
6 09/28/2020 03:49:17 ( 10.00, 142.46) 09/28/2020 03:52:49 ( 22.45, 139.51)
7 09/28/2020 14:39:41 ( 22.66, 165.05) 09/28/2020 14:43:16 ( 10.04, 162.05)
8 09/28/2020 16:21:11 ( 22.66, 139.67) 09/28/2020 16:21:22 ( 22.01, 139.51)
9 09/29/2020 03:30:15 ( 10.04, 147.21) 09/29/2020 03:33:50 ( 22.67, 144.21)
10 09/29/2020 16:02:08 ( 22.67, 144.43) 09/29/2020 16:05:43 ( 10.05, 141.44)
11 09/30/2020 03:11:13 ( 10.03, 151.97) 09/30/2020 03:14:48 ( 22.65, 148.97)
12 09/30/2020 15:43:06 ( 22.69, 149.19) 09/30/2020 15:46:42 ( 10.01, 146.18)
13 10/01/2020 02:52:10 ( 10.01, 156.73) 10/01/2020 02:55:46 ( 22.69, 153.72)
14 10/01/2020 15:24:04 ( 22.65, 153.94) 10/01/2020 15:27:39 ( 10.03, 150.94)
15 10/02/2020 02:33:09 ( 10.05, 161.48) 10/02/2020 02:36:44 ( 22.68, 158.48)
16 10/02/2020 15:05:02 ( 22.66, 158.70) 10/02/2020 15:08:37 ( 10.04, 155.70)
17 10/03/2020 02:14:55 ( 12.86, 165.59) 10/03/2020 02:17:42 ( 22.66, 163.24)
18 10/03/2020 03:55:37 ( 10.05, 140.86) 10/03/2020 03:57:16 ( 15.86, 139.51)
19 10/03/2020 14:45:59 ( 22.68, 163.46) 10/03/2020 14:49:35 ( 10.00, 160.45)
20 10/04/2020 03:36:34 ( 10.03, 145.62) 10/04/2020 03:40:09 ( 22.66, 142.62)
21 10/04/2020 14:30:04 ( 11.72, 165.60) 10/04/2020 14:30:33 ( 10.02, 165.21)
22 10/04/2020 16:08:27 ( 22.69, 142.84) 10/04/2020 16:12:03 ( 10.01, 139.83)
23 10/05/2020 03:17:32 ( 10.02, 150.38) 10/05/2020 03:21:08 ( 22.70, 147.37)
24 10/05/2020 15:49:25 ( 22.64, 147.59) 10/05/2020 15:53:00 ( 10.02, 144.59)
25 10/06/2020 02:58:29 ( 10.00, 155.14) 10/06/2020 03:02:05 ( 22.69, 152.13)
26 10/06/2020 15:30:23 ( 22.66, 152.35) 10/06/2020 15:33:58 ( 10.04, 149.35)
27 10/07/2020 02:39:28 ( 10.05, 159.89) 10/07/2020 02:43:03 ( 22.67, 156.89)
28 10/07/2020 15:11:20 ( 22.67, 157.11) 10/07/2020 15:14:55 ( 10.06, 154.11)
29 10/08/2020 02:20:25 ( 10.03, 164.65) 10/08/2020 02:24:00 ( 22.66, 161.65)
30 10/08/2020 14:52:18 ( 22.69, 161.87) 10/08/2020 14:55:54 ( 10.01, 158.86)
31 10/09/2020 03:42:53 ( 10.03, 144.03) 10/09/2020 03:46:28 ( 22.65, 141.03)
32 10/09/2020 14:34:28 ( 18.48, 165.60) 10/09/2020 14:36:52 ( 10.03, 163.62)
